Flag for Sweden

Past Weather in Sundsvall, Sweden — Yesterday and Last 2 Weeks

Now
55 °F

Light rain. More clouds than sun.


Feels Like: 55 °F
Forecast: 67 / 56 °F
Wind: 3 mph from West

Location: Sundsvall-Harnosand Flygplats

Current Time: Jul 15, 2020 at 5:18:09 am

Latest Report: Jul 15, 2020 at 4:20 am


Visibility: 5 mi

Pressure: 29.92 "Hg

Humidity: 100%

Dew Point: 55 °F

Location of SundsvallLocation

Past Weather in Sundsvall — Graph

°F

Sundsvall Temperature Yesterday

Maximum temperature yesterday: 66 °F (at 11:20 am)
Minimum temperature yesterday: 43 °F (at 3:20 am)
Average temperature yesterday: 58 °F

High & Low Weather Summary for the Past Weeks

 TemperatureHumidityPressure
High77 °F (Jun 30, 3:20 pm)100% (Jun 30, 3:20 am)29.98 "Hg (Jun 30, 3:20 am)
Low39 °F (Jul 5, 2:50 am)27% (Jun 30, 2:50 pm)28.97 "Hg (Jul 6, 4:20 am)
Average56 °F71%29.59 "Hg
* Reported Jun 30 3:20 am — Jul 15 3:50 am, Sundsvall. Weather by CustomWeather, © 2020

Note: Actual official high and low records may vary slightly from our data, if they occured in-between our weather recording intervals... More about our weather records

Sundsvall Weather History for the Previous 24 Hours

Scroll right to see more
 ConditionsComfort  
Time TempWeatherWind HumidityBarometerVisibility
3:50 am
Wed, Jul 15
55 °FDrizzle. Overcast.3 mph100%29.92 "Hg4 mi
3:20 am55 °FMostly cloudy.2 mph100%29.92 "HgN/A
2:50 am55 °FOvercast.3 mph100%29.92 "HgN/A
2:20 am55 °FPassing clouds.3 mph100%29.92 "HgN/A
1:50 am55 °FDrizzle. Mostly cloudy.5 mph100%29.92 "HgN/A
1:20 am57 °FDrizzle. Overcast.5 mph94%29.92 "HgN/A
12:50 am57 °FDrizzle. Mostly cloudy.6 mph94%29.92 "HgN/A
12:20 am57 °FOvercast.5 mph94%29.92 "HgN/A
11:50 pm
Tue, Jul 14
57 °FPartly cloudy.5 mph94%29.92 "HgN/A
11:20 pm57 °FOvercast.5 mph88%29.92 "HgN/A
10:50 pm57 °FPassing clouds.5 mph88%29.92 "HgN/A
10:20 pm57 °FScattered clouds.5 mph82%29.92 "HgN/A
9:50 pm59 °FCool.7 mph77%29.89 "HgN/A
9:20 pm59 °FCool.7 mph72%29.89 "HgN/A
8:50 pm61 °FPassing clouds.8 mph63%29.89 "HgN/A
8:20 pm61 °FCool.7 mph63%29.89 "HgN/A
7:50 pm61 °FPassing clouds.8 mph63%29.89 "HgN/A
7:20 pm63 °FPartly sunny.12 mph56%29.89 "HgN/A
6:50 pm63 °FPartly sunny.13 mph59%29.89 "HgN/A
6:20 pm63 °FPassing clouds.13 mph56%29.89 "HgN/A
5:50 pm64 °FPassing clouds.13 mph52%29.89 "HgN/A
5:20 pm63 °FBroken clouds.14 mph56%29.89 "HgN/A
4:50 pm63 °FSunny.15 mph52%29.89 "Hg10 mi
4:20 pm64 °FSunny.16 mph49%29.89 "Hg10 mi
3:50 pm64 °FSunny.14 mph49%29.89 "Hg10 mi
3:20 pm64 °FSunny.16 mph46%29.89 "Hg10 mi
2:50 pm64 °FSunny.17 mph43%29.89 "Hg10 mi
2:20 pm66 °FSunny.16 mph49%29.89 "Hg10 mi
1:50 pm64 °FMild.16 mph49%29.89 "HgN/A
1:20 pm66 °FMild.16 mph49%29.89 "HgN/A
12:50 pm66 °FPassing clouds.15 mph49%29.89 "HgN/A
12:20 pm66 °FPassing clouds.12 mph40%29.89 "HgN/A
11:50 am66 °FMild.6 mph37%29.89 "HgN/A
11:20 am66 °FMild.5 mph40%29.89 "HgN/A
10:50 am64 °FMild.5 mph43%29.92 "HgN/A
10:20 am63 °FMild.5 mph49%29.92 "HgN/A
9:50 am63 °FMild.3 mph52%29.92 "HgN/A
9:20 am63 °FMild.3 mph59%29.92 "HgN/A
8:50 am61 °FRefreshingly cool.2 mph59%29.92 "HgN/A
8:20 am59 °FCool.1 mph63%29.92 "HgN/A
7:50 am57 °FCool.2 mph63%29.92 "HgN/A
7:20 am55 °FCool.2 mph72%29.92 "HgN/A
6:50 am52 °FCool.3 mph77%29.92 "HgN/A
6:20 am48 °FCool.3 mph94%29.92 "HgN/A
5:50 am48 °FCool.3 mph94%29.92 "HgN/A
5:20 am46 °FCool.5 mph93%29.92 "HgN/A
Weather by CustomWeather, © 2020

See weather overview